Hourly Data Report for October 23, 2016

All times are specified in Local Standard Time (LST). Add 1 hour to adjust for Daylight Saving Time where and when it is observed.

ARVIAT A
NUNAVUT

61°05'38.000" N
94°04'18.000" W
10.40 m
2300427
71174
YEK

Download Data

Hourly Data (October 2016)
Hourly Data Report for October 23, 2016
Temp Definition
°C
Dew Point Temp Definition
°C
Rel Hum Definition
%
Wind Dir Definition
10's deg

Wind Spd Definition
km/h
Visibility Definition
km
Stn Press Definition
kPa
Hmdx Definition


Wind Chill Definition


Weather Definition


TIME
00:00 Legend Double Dagger 1.7 1.3 97 8 35 16.1 101.43     Rain
01:00 Legend Double Dagger 1.6 1.3 98 8 37 16.1 101.46     Rain
02:00 Legend Double Dagger 1.7 1.4 98 8 39 16.1 101.50     Rain
03:00 Legend Double Dagger 1.7 1.4 98 8 37 16.1 101.54     Rain
04:00 Legend Double Dagger 1.8 1.3 96 9 32 16.1 101.59     LegendNANA
05:00 Legend Double Dagger 1.8 1.2 96 9 32 16.1 101.66     LegendNANA
06:00 Legend Double Dagger 1.6 0.6 93 9 34 16.1 101.71     LegendNANA
07:00 Legend Double Dagger 1.1 1.0 99 8 24 14.5 101.76     Rain
08:00 Legend Double Dagger 1.1 0.8 98 9 26 16.1 101.81     Rain
09:00 Legend Double Dagger 1.1 1.0 99 9 30 16.1 101.86     Rain
10:00 Legend Double Dagger 1.2 1.1 99 9 35 16.1 101.92     Rain
11:00 Legend Double Dagger 1.0 0.9 99 9 30 14.5 101.99     Rain,Snow
12:00 Legend Double Dagger 1.3 0.6 95 10 26 16.1 102.03     Rain
13:00 Legend Double Dagger 1.2 0.9 98 9 30 16.1 102.09     Rain
14:00 Legend Double Dagger 1.3 0.8 96 10 22 16.1 102.13     Rain
15:00 Legend Double Dagger 1.8 0.6 92 8 24 16.1 102.17     LegendNANA
16:00 Legend Double Dagger 1.6 0.3 91 9 22 16.1 102.25     LegendNANA
17:00 Legend Double Dagger 1.0 0.3 95 8 21 16.1 102.31     LegendNANA
18:00 Legend Double Dagger 1.2 -0.1 91 8 21 16.1 102.37     LegendNANA
19:00 Legend Double Dagger 0.9 0.2 95 11 22 16.1 102.43     LegendNANA
20:00 Legend Double Dagger 1.0 0.0 93 10 18 16.1 102.46     LegendNANA
21:00 Legend Double Dagger 0.9 0.2 95 9 17 16.1 102.51     LegendNANA
22:00 Legend Double Dagger 0.9 0.5 97 9 21 16.1 102.56     LegendNANA
23:00 Legend Double Dagger 1.0 0.1 94 10 22 16.1 102.62     LegendNANA

Notes on Data Quality.

Legend

  • E = Estimated
  • M = Missing
  • NA = Not Available
  • ‡ = Partner data that is not subject to review by the National Climate Archives
Date modified: